| time (UTC) | temp C | wind direction | speed KPH | gust KPH | rain 1hr cm | rain 24hr cm | rain mn cm | humidity % | barometer mb |
| 20260506111546 | -17 | 0.0 | 0.0 | 0.00 | 2.49 | 0.99 | 1006.9 | ||
| 20260506110042 | -17 | 0.0 | 0.0 | 0.00 | 2.49 | 0.99 | 1006.7 | ||
| 20260506104540 | -17 | 0.0 | 0.0 | 0.00 | 2.49 | 0.99 | 1005.8 | ||
| 20260506103044 | -17 | 0.0 | 0.0 | 0.00 | 2.49 | 0.99 | 1005.2 | ||
| 20260506101528 | -17 | 0.0 | 0.0 | 0.00 | 2.49 | 0.99 | 1005.1 | ||
| 20260506100027 | -17 | 0.0 | 0.0 | 0.00 | 2.49 | 0.99 | 1005.7 | ||
| 20260506094521 | -17 | 0.0 | 0.0 | 0.00 | 2.49 | 0.99 | 1006.3 | ||
| 20260506093017 | -17 | 0.0 | 0.0 | 0.00 | 2.49 | 0.99 | 1005.9 | ||
| 20260506091516 | -17 | 0.0 | 0.0 | 0.00 | 2.49 | 0.99 | 1006.1 | ||
| 20260506090015 | -17 | 0.0 | 0.0 | 0.08 | 2.49 | 0.99 | 1005.8 | ||
| 20260506084502 | -17 | 0.0 | 0.0 | 0.15 | 2.49 | 0.99 | 1005.8 | ||
| 20260506083100 | -17 | 0.0 | 0.0 | 0.23 | 2.49 | 0.99 | 1005.7 | ||
| 20260506081601 | 7 | 319 | 1.6 | 11.3 | 0.30 | 2.49 | 0.99 | 100 | 1005.7 |
| 20260506073056 | 7 | 360 | 0.0 | 4.8 | 0.23 | 2.26 | 0.76 | 96 | 1005.1 |
| 20260506071548 | 7 | 330 | 0.0 | 0.0 | 0.20 | 2.18 | 0.69 | 96 | 1005.0 |
| 20260506061552 | 8 | 63 | 0.0 | 3.2 | 0.23 | 1.96 | 0.46 | 96 | 1005.4 |
| 20260506044530 | 9 | 319 | 0.0 | 4.8 | 0.20 | 1.65 | 0.15 | 96 | 1006.1 |
| 20260506043036 | 9 | 340 | 0.0 | 4.8 | 0.18 | 1.60 | 0.10 | 96 | 1006.3 |
| 20260506041526 | 9 | 338 | 0.0 | 3.2 | 0.15 | 1.55 | 0.05 | 96 | 1006.2 |
| 20260506040021 | 9 | 333 | 0.0 | 3.2 | 0.15 | 1.50 | 0.00 | 96 | 1006.2 |
| 20260506034521 | 9 | 333 | 0.0 | 3.2 | 0.15 | 1.42 | 1.42 | 96 | 1006.2 |
| 20260506033020 | 9 | 359 | 0.0 | 4.8 | 0.25 | 1.42 | 1.42 | 95 | 1006.4 |
| 20260506031517 | 9 | 50 | 0.0 | 1.6 | 0.48 | 1.40 | 1.40 | 95 | 1006.5 |
| 20260506030035 | 10 | 94 | 0.0 | 3.2 | 0.51 | 1.35 | 1.35 | 95 | 1007.0 |
| 20260506024532 | 10 | 75 | 0.0 | 0.0 | 0.51 | 1.30 | 1.30 | 95 | 1006.7 |
| 20260506023010 | 10 | 219 | 0.0 | 4.8 | 0.41 | 1.14 | 1.14 | 95 | 1006.5 |
| 20260506021508 | 11 | 260 | 0.0 | 6.4 | 0.20 | 0.91 | 0.91 | 95 | 1006.3 |
| 20260506020007 | 11 | 342 | 0.0 | 1.6 | 0.13 | 0.84 | 0.84 | 95 | 1005.9 |
| 20260506014507 | 11 | 312 | 0.0 | 3.2 | 0.10 | 0.79 | 0.79 | 95 | 1006.0 |
| 20260506013001 | 11 | 22 | 0.0 | 3.2 | 0.10 | 0.71 | 0.71 | 94 | 1005.7 |
| 20260506011512 | 12 | 316 | 1.6 | 4.8 | 0.08 | 0.71 | 0.71 | 94 | 1005.6 |
| 20260506010016 | 12 | 321 | 0.0 | 3.2 | 0.10 | 0.71 | 0.71 | 94 | 1005.4 |
| 20260506004555 | 12 | 27 | 0.0 | 6.4 | 0.15 | 0.69 | 0.69 | 94 | 1005.4 |
| 20260506003052 | 13 | 169 | 0.0 | 0.0 | 0.33 | 0.64 | 0.64 | 94 | 1005.3 |
| 20260506001553 | 13 | 169 | 0.0 | 0.0 | 0.58 | 0.64 | 0.64 | 94 | 1005.4 |
| 20260506000049 | 13 | 169 | 0.0 | 1.6 | 0.58 | 0.61 | 0.61 | 93 | 1005.4 |
| 20260505234553 | 13 | 336 | 0.0 | 4.8 | 0.51 | 0.53 | 0.53 | 92 | 1005.7 |
| 20260505233045 | 14 | 228 | 0.0 | 3.2 | 0.28 | 0.30 | 0.30 | 90 | 1006.0 |
| 20260505231559 | 15 | 269 | 0.0 | 0.0 | 0.03 | 0.05 | 0.05 | 88 | 1004.9 |
| 20260505230040 | 15 | 14 | 0.0 | 0.0 | 0.00 | 0.03 | 0.03 | 88 | 1004.8 |
| 20260505224538 | 15 | 351 | 0.0 | 0.0 | 0.00 | 0.03 | 0.03 | 87 | 1004.9 |
| 20260505223037 | 15 | 65 | 0.0 | 0.0 | 0.00 | 0.03 | 0.03 | 87 | 1005.1 |
| 20260505221537 | 16 | 295 | 0.0 | 0.0 | 0.00 | 0.03 | 0.03 | 86 | 1005.2 |
| 20260505220037 | 16 | 278 | 0.0 | 0.0 | 0.00 | 0.03 | 0.03 | 85 | 1005.3 |
| 20260505214553 | 16 | 32 | 0.0 | 0.0 | 0.00 | 0.03 | 0.03 | 85 | 1005.0 |
| 20260505213031 | 16 | 269 | 0.0 | 0.0 | 0.00 | 0.03 | 0.03 | 85 | 1005.1 |
| 20260505211533 | 16 | 238 | 0.0 | 6.4 | 0.03 | 0.03 | 0.03 | 84 | 1004.9 |
| 20260505210029 | 16 | 210 | 0.0 | 11.3 | 0.03 | 0.03 | 0.03 | 83 | 1005.0 |
| 20260505204534 | 16 | 243 | 0.0 | 4.8 | 0.03 | 0.03 | 0.03 | 84 | 1005.0 |
| 20260505203026 | 17 | 194 | 0.0 | 12.9 | 0.03 | 0.03 | 0.03 | 77 | 1005.3 |
| 20260505201525 | 18 | 114 | 4.8 | 20.9 | 0.00 | 0.00 | 0.00 | 68 | 1005.0 |
| 20260505200029 | 19 | 249 | 0.0 | 0.0 | 0.00 | 0.00 | 0.00 | 64 | 1004.9 |
| 20260505194523 | 20 | 271 | 1.6 | 16.1 | 0.00 | 0.00 | 0.00 | 63 | 1004.9 |
| 20260505193023 | 20 | 276 | 0.0 | 1.6 | 0.00 | 0.00 | 0.00 | 64 | 1005.2 |
| 20260505191522 | 19 | 20 | 0.0 | 0.0 | 0.00 | 0.00 | 0.00 | 66 | 1005.2 |
| 20260505190028 | 20 | 308 | 0.0 | 12.9 | 0.00 | 0.00 | 0.00 | 63 | 1005.7 |
| 20260505184522 | 19 | 208 | 0.0 | 11.3 | 0.00 | 0.00 | 0.00 | 64 | 1005.9 |
| 20260505183028 | 19 | 210 | 0.0 | 20.9 | 0.00 | 0.00 | 0.00 | 64 | 1006.1 |
| 20260505181520 | 19 | 252 | 8.0 | 25.7 | 0.00 | 0.00 | 0.00 | 63 | 1005.9 |
| 20260505180022 | 19 | 148 | 4.8 | 20.9 | 0.00 | 0.00 | 0.00 | 62 | 1005.6 |
| 20260505174517 | 20 | 177 | 0.0 | 24.1 | 0.00 | 0.00 | 0.00 | 61 | 1005.4 |
| 20260505173017 | 20 | 238 | 3.2 | 25.7 | 0.00 | 0.00 | 0.00 | 60 | 1005.2 |
| 20260505171516 | 21 | 233 | 0.0 | 14.5 | 0.00 | 0.00 | 0.00 | 59 | 1005.2 |
| 20260505170015 | 20 | 210 | 4.8 | 16.1 | 0.00 | 0.00 | 0.00 | 61 | 1005.4 |
| 20260505164514 | 20 | 297 | 4.8 | 30.6 | 0.00 | 0.00 | 0.00 | 60 | 1005.5 |
| 20260505163017 | 21 | 284 | 3.2 | 22.5 | 0.00 | 0.00 | 0.00 | 58 | 1005.4 |
| 20260505161513 | 21 | 219 | 4.8 | 27.4 | 0.00 | 0.00 | 0.00 | 60 | 1005.1 |
| 20260505153007 | 20 | 193 | 4.8 | 24.1 | 0.00 | 0.00 | 0.00 | 61 | 1005.0 |
| 20260505151506 | 20 | 301 | 1.6 | 20.9 | 0.00 | 0.00 | 0.00 | 62 | 1005.0 |
| 20260505140111 | 17 | 183 | 4.8 | 22.5 | 0.00 | 0.00 | 0.00 | 70 | 1004.9 |
| 20260505124547 | 16 | 225 | 6.4 | 14.5 | 0.00 | 0.00 | 0.00 | 74 | 1004.4 |
| 20260505123051 | 16 | 328 | 1.6 | 9.7 | 0.00 | 0.00 | 0.00 | 73 | 1004.3 |
| 20260505121545 | 16 | 141 | 0.0 | 1.6 | 0.00 | 0.00 | 0.00 | 73 | 1004.3 |
| 20260505120050 | 16 | 209 | 3.2 | 9.7 | 0.00 | 0.00 | 0.00 | 71 | 1004.4 |
| 20260505114551 | 16 | 217 | 0.0 | 11.3 | 0.00 | 0.00 | 0.00 | 71 | 1004.6 |
| 20260505113040 | 16 | 178 | 0.0 | 8.0 | 0.00 | 0.00 | 0.00 | 71 | 1004.4 |